AirNav   Air Wisconsin Up To $57,000 Bonus
 
 1235 users online  

H96 Benton Municipal Airport
Benton, Illinois, USA

GOING TO BENTON?


FAA INFORMATION EFFECTIVE 02 JANUARY 2020

Location

FAA Identifier: H96
Lat/Long: 38-00-30.6000N 088-56-04.0000W
38-00.510000N 088-56.066667W
38.0085000,-88.9344444
(estimated)
Elevation: 444.1 ft. / 135.4 m (surveyed)
Variation: 02W (2010)
From city: 1 mile W of BENTON, IL
Time zone: UTC -6 (UTC -5 during Daylight Saving Time)
Zip code: 62812

Airport Operations

Airport use: Open to the public
Activation date: 04/1947
Control tower: no
ARTCC: KANSAS CITY CENTER
FSS: SAINT LOUIS FLIGHT SERVICE STATION
NOTAMs facility: STL (NOTAM-D service available)
Attendance: UNATTND
Wind indicator: lighted
Segmented circle: no
Lights: MIRL RY 18/36 PRESET ON LOW INTST; TO INCR INTST ACTVT - CTAF.
Beacon: white-green (lighted land airport)
Operates sunset to sunrise.

Airport Communications

CTAF/UNICOM: 122.8
WX AWOS-3 at MWA (16 nm S): 119.675 (618-942-8877)
WX AWOS-3PT at MVN (19 nm N): 118.2 (618-242-7933)
  • APCH/DEP SVC PRVDD BY KANSAS CITY ARTCC ON FREQS 127.475/346.275 (MARION RCAG).

Nearby radio navigation aids

VOR radial/distance  VOR name  Freq  Var
MWAr009/15.7MARION VOR/DME110.4004E
ENLr153/26.9CENTRALIA VORTAC115.0004E

 
NDB name  Hdg/Dist  Freq  Var  ID
JONNY009/10.338201EMW -- .--
WAYNE COUNTY229/33.325701WFWC ..-. .-- -.-.
SALEM179/38.240001WSLO ... .-.. ---

Airport Services

Fuel available: 100LL
Parking: tiedowns

Runway Information

Runway 18/36

Dimensions: 4002 x 75 ft. / 1220 x 23 m
Surface: asphalt, in good condition
Weight bearing capacity: 
Single wheel: 4.0
Runway edge lights: medium intensity
Runway edge markings: RWY MARKING FADED.
RUNWAY 18  RUNWAY 36
Latitude: 38-00.840073N38-00.180805N
Longitude: 088-56.071950W088-56.061308W
Elevation: 439.1 ft.444.1 ft.
Traffic pattern: leftleft
Runway heading: 181 magnetic, 179 true001 magnetic, 359 true
Markings: nonprecision, in poor conditionnonprecision, in poor condition
Visual slope indicator: 4-light PAPI on left (3.33 degrees glide path)
Runway end identifier lights: yesyes
Touchdown point: yes, no lightsyes, no lights
Obstructions: none68 ft. tree, 1226 ft. from runway, 135 ft. right of centerline, 15:1 slope to clear

Airport Ownership and Management from official FAA records

Ownership: Publicly-owned
Owner: CITY OF BENTON
P.O. BOX 640, 1403 SOUTH MAIN ST
BENTON, IL 62812
Phone 618-439-6131
Manager: CHARLES CASEY
P.O. BOX 640
BENTON, IL 62812
Phone (618) 927-0442
EMAIL CHRLSCASEY@YAHOO.COM (ALL LOWER CASE)

Airport Operational Statistics

Aircraft based on the field: 6
Single engine airplanes: 4
Multi engine airplanes: 2
    
Aircraft operations: avg 22/day *
49% local general aviation
45% transient general aviation
5% air taxi
<1% military
* for 12-month period ending 31 July 2019

Additional Remarks

FOR CD CTC KANSAS CITY ARTCC AT 913-254-8508.

Instrument Procedures

NOTE: All procedures below are presented as PDF files. If you need a reader for these files, you should download the free Adobe Reader.

NOT FOR NAVIGATION. Please procure official charts for flight.
FAA instrument procedures published for use from 02 January 2020 at 0901Z to 30 January 2020 at 0900Z.

 
IAPs - Instrument Approach Procedures
RNAV (GPS) RWY 18   download (202KB)
NOTE: Special Take-Off Minimums/Departure Procedures apply   download (201KB)

Other nearby airports with instrument procedures:

KMWA - Veterans Airport of Southern Illinois (16 nm S)
KMVN - Mount Vernon Airport (19 nm N)
KPJY - Pinckneyville-Du Quoin Airport (20 nm W)
KMDH - Southern Illinois Airport (20 nm SW)
KHSB - Harrisburg-Raleigh Airport (22 nm SE)
 
Loc | Ops | Rwys | IFR | FBO | Links
Com | Nav | Svcs | Stats | Notes
Area around H96 (Benton Municipal Airport)
 
Road maps at: MapQuest Bing Google
 
Aerial photo
WARNING: Photo may not be current or correct
Aerial photo of H96 (Benton Municipal Airport)
Photo by LD Pahnke
Photo taken 08-May-2011
looking southeast from 3500'.

Do you have a better or more recent aerial photo of Benton Municipal Airport that you would like to share? If so, please send us your photo.

 
Sectional chart

 
Airport distance calculator
Flying to Benton Municipal Airport? Find the distance to fly.

From to H96

Sunrise and sunset
Times for 22-Jan-2020
 Local
(UTC-6)
 Zulu
(UTC)
Morning civil twilight06:4012:40
Sunrise07:0813:08
Sunset17:0623:06
Evening civil twilight17:3523:35

Current date and time
Zulu (UTC)  23-Jan-2020 00:30:26
Local (UTC-6)  22-Jan-2020 18:30:26
 
METAR
KMWA 
16nm S 
222345Z 14006KT 10SM OVC150 01/M06 A3020
KMVN 
19nm N 
222356Z AUTO 15006KT 10SM CLR 01/M07 A3020 RMK AO2 SLP237 T00111067 10039 20011 55004 FZRANO
KMDH 
20nm SW 
222352Z 16008KT 10SM CLR 00/M07 A3020 RMK AO2 SLP232 T00001067 10017 20000 53000
KHSB 
22nm SE 
230015Z AUTO 13004KT 10SM CLR 00/M04 A3023 RMK AO2 T00021042
KENL 
31nm N 
230015Z AUTO 14007KT 10SM SCT100 01/M05 A3018 RMK AO2 T00121050
TAF
KMVN 
19nm N 
221732Z 2218/2318 17009KT P6SM BKN180 FM222300 17006KT P6SM OVC150 FM230300 17007KT P6SM -SNPL OVC080 FM230900 17007KT P6SM -RAPL OVC040 FM231500 17011G17KT 5SM -RA BR OVC025
NOTAMs
Click for the latest NOTAMs
NOTAMs are issued by the DoD/FAA and will open in a separate window not controlled by AirNav.

 

 
 

FBO, Fuel Providers, and Aircraft Ground Support

  
 Business Name 
 
 Contact 
 
 Services / Description 
 
Fuel Prices
 
Comments
  
Benton Municipal Airport 618-435-3526
no information available

If you are affiliated with Benton Municipal Airport and would like to show here your services, contact info, web link, logo, and more, click here
100LL
PS $4.40 
 Updated 29-May-2016
 
   1 read write
PS=Pump service
Update Fuel Prices
 

Would you like to see your business listed on this page?

 If your business provides an interesting product or service to pilots, flight crews, aircraft, or users of the Benton Municipal Airport, you should consider listing it here.  To start the listing process, click on the button below
 
Add a business
 

Other Pages about Benton Municipal Airport

Update a link
 
Copyright © AirNav, LLC. All rights reserved. Privacy Policy  Contact